Вернуться в каталог

STARLINK-35542

АктивенСвязьVLEO
NORAD 66064·PAYLOAD·🇺🇸 United States

Запущен Oct 19, 2025 с Cape Canaveral Space Force Station

Loading…

Ближайшие Пролёты (ближайшие 24 часа)

TLE

СвежийSource: CelesTrak SupGP

Эпоха: Sep 15, 2026, 03:20 UTC

1 66064C 25235G   26258.13937500 -.00023548  00000+0 -69580-3 0  2582
2 66064  53.1585  84.8773 0001159  86.8116 251.1087 15.34399768    14

Отслеживайте STARLINK-35542 в реальном времени с AllMySat

Download on the App Store